DELTA 1 DEB, 27727

Orbit data source: Space-Track

DELTA 1 DEB, 27727 is space debris in LEO originally from a launch on Thu, 29 Jul 1976 UTC launched from the Air Force Western Test Range (AFWTR). Debris objects in space refer to the collection of defunct objects orbiting the Earth. Examples of debris include non-operational satellites, rocket bodies, and fragments generated from explosions, collisions, or faulty payload assembly.

Loading next visibility...
Identifier
27727, 1976-077FS
Orbit
LEO
Country
Flag of USUS
Related business
Manufacturer
Unknown
Mission
Spacecraft
Bus & Motor
Unknown
Mass
Unknown
Launch date (UTC)
1976-07-29 (49 years ago)
Launch vehicle
Unknown
Launch site
Air Force Western Test Range (AFWTR)
Object type
Payload
Rocket body
Debris
Shape & HBR
Unknown shape, 0.1 m
Radar Cross Section
Small (<0.1 m²)

Expand to show TLE details & history
Last TLE update: 1 week ago

TLE from 1 week ago
0 DELTA 1 DEB
1 27727U 76077FS  25345.80734839 -.00000064  00000-0 -37881-3 0  9995
2 27727 102.7161  86.6460 0412458  96.1370  52.0269 11.68378088489695
Epoch: 2025-12-11T19:22Z
TLE epoch observation values (Epoch: 2025-12-11T19:22:34.900Z)
Latitude
27.28582°
Longitude
-98.10566°
Altitude
1,629.321 km
Speed
7.144 km/s
True Right ascension
18h 13m 11s
True Declination
27° 09' 40"
Sunlit
Object was in daylight at epoch
Visualization orbit readout
Latitude
Unknown
Longitude
Unknown
Altitude
Unknown
Speed
Unknown
Apparent Right ascension
Unknown
Apparent Declination
Unknown
Sunlit
N/A
Visualization observer readout
Local Sidereal Time
21:54:56
Azimuth
Unknown
Elevation
Unknown
Doppler factor
Unknown
Orbital elements
Apogee altitude
2,161.604 km
Perigee altitude
1,485.052 km
Semi-major axis
8,201.465 km
Eccentricity
0.04125
Inclination
102.7161°
RAAN
86.646°
Arg. of periapsis
96.137°
True anomaly
55.87174°
Mean anomaly
52.0269°
Eccentric anomaly
53.93725°
Mean motion
2.92217 °/min
Orbital period
123.2 mins
BSTAR
-0.00037881
Loading maneuver chart data...
Computing Atmospheric mass density...
Loading historical data...
Loading historical data...
Loading historical data...
Loading historical data...
Loading historical data...
Loading historical data...
Loading historical data...

Documentation

Showing up to 5 results
|